Tracking 28790 objects as of 19-Apr-2024
HD Live streaming from Space Station
objects crossing your sky now

FENGYUN 1C DEB

Track FENGYUN 1C DEB now!
10-day predictions


NORAD ID: 31434
Int'l Code: 1999-025BTW
Perigee: 561.2 km
Apogee: 584.7 km
Inclination: 99.0 °
Period: 96.0 minutes
Semi major axis: 6943 km
RCS: 0.0126 m2 (small)
Launch date: May 10, 1999
Source: People's Republic of China (PRC)
Launch site: Taiyaun Space Center, China (TSC)

Note: This is SATELLITE DEBRIS
Your satellite tracking list
Your tracking list is empty




NASA's NSSDC Master Catalog

Two Line Element Set (TLE):
1 31434U 99025BTW 24109.79488869  .00217783  00000-0  16791-1 0  9998
2 31434  99.0077 196.1478 0016938 118.3737   9.9003 15.00357388892271
Source of the keplerian elements: AFSPC